TimeCDT,TemperatureF,Dew PointF,Humidity,Sea Level PressureIn,VisibilityMPH,Wind Direction,Wind SpeedMPH,Gust SpeedMPH,PrecipitationIn,Events,Conditions,WindDirDegrees,DateUTC
12:53 AM,48.9,46.0,90,29.86,3.0,North,15.0,21.9,0.02,Rain,Light Rain,350,2013-04-11 05:53:00
1:00 AM,48.2,46.4,93,29.86,4.0,NNW,12.7,-,0.00,Rain-Thunderstorm,Light Rain,340,2013-04-11 06:00:00
1:07 AM,48.2,46.4,93,29.86,5.0,North,12.7,-,0.00,Rain-Thunderstorm,Light Rain,350,2013-04-11 06:07:00
1:14 AM,48.2,46.4,93,29.86,6.0,NNW,12.7,-,0.00,Rain-Thunderstorm,Light Rain,340,2013-04-11 06:14:00
1:21 AM,48.2,46.4,93,29.86,8.0,NNW,11.5,-,0.00,Rain,Light Rain,340,2013-04-11 06:21:00
1:53 AM,48.0,46.0,93,29.86,7.0,North,11.5,19.6,0.01,Rain,Light Rain,360,2013-04-11 06:53:00
2:24 AM,48.2,44.6,87,29.85,7.0,North,13.8,-,0.01,Rain,Rain,350,2013-04-11 07:24:00
2:33 AM,48.2,44.6,87,29.83,6.0,North,15.0,24.2,0.01,Rain,Light Rain,350,2013-04-11 07:33:00
2:53 AM,46.9,44.1,90,29.82,9.0,North,13.8,24.2,0.03,Rain,Light Rain,350,2013-04-11 07:53:00
3:04 AM,46.4,44.6,93,29.88,9.0,WNW,11.5,24.2,0.00,Rain-Thunderstorm,Light Rain,290,2013-04-11 08:04:00
3:51 AM,46.4,44.6,93,29.84,9.0,NNW,10.4,19.6,0.04,Rain-Thunderstorm,Light Thunderstorms and Rain,340,2013-04-11 08:51:00
3:53 AM,46.9,44.1,90,29.83,8.0,North,10.4,19.6,0.06,Rain-Thunderstorm,Light Thunderstorms and Rain,350,2013-04-11 08:53:00
4:40 AM,46.4,42.8,87,29.86,6.0,NW,13.8,23.0,0.25,Rain,Light Rain,310,2013-04-11 09:40:00
4:53 AM,46.0,43.0,89,29.85,9.0,NNW,17.3,21.9,0.25,Rain,Light Rain,330,2013-04-11 09:53:00
5:11 AM,46.4,42.8,87,29.90,10.0,Calm,Calm,-,0.01,Rain-Thunderstorm,Light Rain,0,2013-04-11 10:11:00
5:31 AM,46.4,42.8,87,29.82,6.0,NNW,19.6,26.5,0.03,Rain-Thunderstorm,Rain,340,2013-04-11 10:31:00
5:53 AM,46.0,42.1,86,29.86,8.0,NNW,12.7,-,0.06,Rain-Thunderstorm,Light Thunderstorms and Rain,330,2013-04-11 10:53:00
6:53 AM,45.0,41.0,86,29.91,6.0,Variable,6.9,-,0.12,Rain-Thunderstorm,Rain,0,2013-04-11 11:53:00
7:15 AM,44.6,41.0,87,29.89,7.0,North,13.8,-,0.04,Rain,Rain,350,2013-04-11 12:15:00
7:31 AM,44.6,41.0,87,29.93,6.0,North,6.9,-,0.06,Rain-Thunderstorm,Light Rain,350,2013-04-11 12:31:00
7:48 AM,44.6,41.0,87,29.94,8.0,NNW,11.5,-,0.08,Rain-Thunderstorm,Rain,330,2013-04-11 12:48:00
7:49 AM,45.0,41.0,86,29.94,7.0,NNW,12.7,-,0.08,Rain-Thunderstorm,Rain,330,2013-04-11 12:49:00
8:19 AM,44.6,41.0,87,29.92,7.0,NNW,10.4,-,0.04,Rain-Thunderstorm,Light Thunderstorms and Rain,340,2013-04-11 13:19:00
8:50 AM,44.6,39.2,81,29.89,7.0,North,10.4,-,0.07,Rain,Light Rain,10,2013-04-11 13:50:00
8:53 AM,44.1,39.9,85,29.89,8.0,North,6.9,-,0.07,Rain,Light Rain,10,2013-04-11 13:53:00
9:28 AM,44.6,41.0,87,29.81,5.0,ENE,11.5,19.6,0.06,Rain,Light Rain,60,2013-04-11 14:28:00
9:53 AM,46.0,43.0,89,29.88,10.0,North,6.9,-,0.06,,Partly Cloudy,10,2013-04-11 14:53:00
10:23 AM,48.2,42.8,82,29.94,9.0,NW,11.5,-,N/A,,Mostly Cloudy,320,2013-04-11 15:23:00
10:25 AM,48.2,44.6,87,29.94,9.0,NNW,12.7,-,N/A,,Mostly Cloudy,330,2013-04-11 15:25:00
10:35 AM,48.2,42.8,82,29.94,9.0,NW,12.7,-,N/A,,Mostly Cloudy,320,2013-04-11 15:35:00
10:53 AM,48.9,43.0,80,29.93,10.0,North,11.5,-,N/A,,Mostly Cloudy,350,2013-04-11 15:53:00
11:03 AM,50.0,42.8,76,29.92,10.0,North,11.5,-,N/A,,Scattered Clouds,350,2013-04-11 16:03:00
12:53 PM,57.0,39.9,53,29.89,10.0,North,8.1,16.1,N/A,,Clear,350,2013-04-11 17:53:00
1:53 PM,62.1,39.0,43,29.87,10.0,NNW,9.2,-,N/A,,Clear,340,2013-04-11 18:53:00
2:53 PM,64.0,41.0,43,29.85,10.0,NW,9.2,-,N/A,,Clear,310,2013-04-11 19:53:00
3:53 PM,66.9,41.0,39,29.83,10.0,Variable,5.8,-,N/A,,Clear,0,2013-04-11 20:53:00
4:53 PM,69.1,41.0,36,29.81,10.0,NW,6.9,-,N/A,,Clear,320,2013-04-11 21:53:00
5:53 PM,70.0,39.0,32,29.80,10.0,North,4.6,-,N/A,,Clear,360,2013-04-11 22:53:00
6:53 PM,69.1,39.9,35,29.81,10.0,Calm,Calm,-,N/A,,Clear,0,2013-04-11 23:53:00
7:53 PM,63.0,46.0,54,29.82,10.0,Calm,Calm,-,N/A,,Clear,0,2013-04-12 00:53:00
8:53 PM,59.0,46.9,64,29.84,10.0,Calm,Calm,-,N/A,,Clear,0,2013-04-12 01:53:00
9:53 PM,55.0,48.0,77,29.87,10.0,Calm,Calm,-,N/A,,Clear,0,2013-04-12 02:53:00
10:53 PM,54.0,48.0,80,29.89,10.0,Calm,Calm,-,N/A,,Clear,0,2013-04-12 03:53:00
11:53 PM,54.0,48.0,80,29.88,10.0,Calm,Calm,-,N/A,,Clear,0,2013-04-12 04:53:00